MOLNIYA 3-40

Last updated on Nov. 14, 2019, 4:22 a.m. UTC

1 21196U 91022A   19317.57707788  .00001148  00000-0  00000+0 0  9996
2 21196  64.2009  74.3862 6871179 284.8128  13.2547  2.02995306210432
UTC
Height (km)
Latitude
Longitude
Inclination
Orbital Period
UTC large
Height (km)
Speed (km/s)
/
Latitude / Longitude
Inclination (degrees)
Orbital Period (minutes)
Azimuth
Elevation
Range (km)
Doppler Factor
iOS Compass Heading
iOS Angle

Next 30 passes for location: Hong Kong

Rise time Rise Azimuth (degrees) Set time Set Azimuth (degrees) Duration Max altitude (degrees)

No matching passes for this satellites